Ionia, MI

9:16 PM EDT on May 25, 2017 (GMT -0400)
Ionia

Weather History for KY70 - March, 2013

Change the Weather History Date:

Tuesday, March 5, 2013

  Actual Average (KGRR) Record (KGRR)
Temperature  
Mean Temperature 25 °F -  
Max Temperature 33 °F 37 °F 68 °F (1983)
Min Temperature 17 °F 23 °F -8 °F (1948)
Degree Days  
Heating Degree Days 40    
Moisture  
Dew Point 21 °F    
Average Humidity 81    
Maximum Humidity 91    
Minimum Humidity 68    
Precipitation  
Precipitation 0.00 in - - ()
Sea Level Pressure  
Sea Level Pressure 29.96 in    
Wind  
Wind Speed 10 mph (ENE)    
Max Wind Speed 20 mph    
Max Gust Speed 30 mph    
Visibility 10 miles    
Events      
Averages and records for this station are not official NWS values.
T = Trace of Precipitation, MM = Missing Value Source: NWS Daily Summary

Daily Weather History Graph

Daily Weather History Graph

Search for Another Location

Airport or City:

Trip Planner

Search our weather history database for the weather conditions in past years. The results will help you decide how hot, cold, wet, or windy it might be!

Date:

Astronomy

Mar. 05, 2013 Rise Set
Actual Time 7:09 AM EST 6:34 PM EST
Civil Twilight 6:40 AM EST 7:03 PM EST
Nautical Twilight 6:07 AM EST 7:36 PM EST
Astronomical Twilight 5:35 AM EST 8:09 PM EST
Moon 2:27 AM EST (3/5) 12:06 PM EST (3/5)
Length of Visible Light 12h 22m
Length of Day
11h 25m
Last Quarter, 41% of the Moon is Illuminated
Mar 5
Last Quarter
Mar 11
New
Mar 19
First Quarter
Mar 27
Full
Apr 3
Last Quarter

Hourly Weather History & Observations

Time (EST) Temp. Windchill Dew Point Humidity Pressure Visibility Wind Dir Wind Speed Gust Speed Precip Events Conditions
12:13 AM 21.2 °F 16.4 °F 15.4 °F 78% 30.09 in 10.0 mi East 3.5 mph - N/A   Clear
12:33 AM 21.2 °F 16.4 °F 15.4 °F 78% 30.09 in 10.0 mi East 3.5 mph - N/A   Clear
12:53 AM 19.2 °F 14.1 °F 15.4 °F 85% 30.09 in 10.0 mi East 3.5 mph - N/A   Clear
1:13 AM 17.8 °F 10.9 °F 14.4 °F 86% 30.09 in 10.0 mi East 4.6 mph - N/A   Clear
1:33 AM 19.2 °F 10.2 °F 14.2 °F 81% 30.09 in 10.0 mi East 6.9 mph - N/A   Clear
1:53 AM 21.0 °F 11.4 °F 14.9 °F 77% 30.08 in 10.0 mi East 8.1 mph - N/A   Clear
2:13 AM 21.4 °F 12.8 °F 14.9 °F 76% 30.08 in 10.0 mi East 6.9 mph - N/A   Clear
2:33 AM 20.7 °F 11.9 °F 14.9 °F 78% 30.08 in 10.0 mi ENE 6.9 mph - N/A   Clear
2:53 AM 19.6 °F 10.6 °F 14.4 °F 80% 30.07 in 10.0 mi ENE 6.9 mph - N/A   Clear
3:13 AM 19.4 °F 10.4 °F 14.4 °F 81% 30.07 in 10.0 mi ENE 6.9 mph - N/A   Clear
3:33 AM 18.9 °F 8.8 °F 14.5 °F 83% 30.06 in 10.0 mi ENE 8.1 mph - N/A   Clear
3:53 AM 19.2 °F 9.3 °F 14.5 °F 82% 30.05 in 10.0 mi East 8.1 mph - N/A   Clear
4:13 AM 19.0 °F 8.2 °F 14.4 °F 82% 30.04 in 10.0 mi East 9.2 mph - N/A   Clear
4:33 AM 19.4 °F 9.5 °F 14.4 °F 81% 30.04 in 10.0 mi East 8.1 mph - N/A   Clear
4:53 AM 19.4 °F 8.6 °F 14.0 °F 80% 30.04 in 10.0 mi East 9.2 mph - N/A   Clear
5:13 AM 19.0 °F 9.0 °F 14.0 °F 81% 30.03 in 10.0 mi East 8.1 mph - N/A   Clear
5:33 AM 19.2 °F 11.3 °F 14.0 °F 80% 30.03 in 10.0 mi East 5.8 mph - N/A   Clear
5:53 AM 19.2 °F 9.3 °F 14.0 °F 80% 30.03 in 10.0 mi East 8.1 mph - N/A   Clear
6:13 AM 19.0 °F 9.0 °F 14.0 °F 81% 30.03 in 10.0 mi East 8.1 mph - N/A   Clear
6:33 AM 18.9 °F 9.8 °F 14.0 °F 81% 30.04 in 10.0 mi East 6.9 mph - N/A   Clear
6:53 AM 18.5 °F 7.5 °F 14.2 °F 83% 30.03 in 10.0 mi ENE 9.2 mph - N/A   Clear
7:13 AM 19.4 °F 9.5 °F 14.5 °F 81% 30.03 in 10.0 mi East 8.1 mph - N/A   Clear
8:13 AM 21.0 °F 9.9 °F 17.6 °F 87% 30.03 in 10.0 mi East 10.4 mph 19.6 mph N/A   Overcast
8:33 AM 21.4 °F 8.0 °F 18.5 °F 89% 30.02 in 10.0 mi East 15.0 mph 20.7 mph N/A   Overcast
8:53 AM 22.1 °F 10.0 °F 19.4 °F 89% 30.02 in 10.0 mi East 12.7 mph 20.7 mph N/A   Overcast
9:13 AM 22.6 °F 10.1 °F 19.9 °F 89% 30.02 in 10.0 mi East 13.8 mph 20.7 mph N/A   Overcast
9:33 AM 23.2 °F 10.8 °F 20.1 °F 88% 30.02 in 10.0 mi East 13.8 mph - N/A   Overcast
9:53 AM 23.9 °F 12.3 °F 20.7 °F 87% 30.02 in 10.0 mi ESE 12.7 mph 17.3 mph N/A   Overcast
10:13 AM 24.8 °F 14.0 °F 21.2 °F 86% 30.01 in 10.0 mi ESE 11.5 mph - N/A   Overcast
10:33 AM 25.7 °F 15.1 °F 20.8 °F 82% 30.00 in 10.0 mi East 11.5 mph 16.1 mph N/A   Mostly Cloudy
10:53 AM 27.5 °F 16.3 °F 21.9 °F 80% 29.99 in 10.0 mi East 13.8 mph 18.4 mph N/A   Mostly Cloudy
11:13 AM 28.4 °F 18.5 °F 22.1 °F 77% 29.97 in 10.0 mi East 11.5 mph 18.4 mph N/A   Overcast
11:33 AM 29.3 °F 17.7 °F 22.8 °F 77% 29.96 in 10.0 mi East 16.1 mph 21.9 mph N/A   Mostly Cloudy
11:53 AM 30.0 °F 20.0 °F 22.8 °F 75% 29.97 in 10.0 mi East 12.7 mph 21.9 mph N/A   Mostly Cloudy
12:13 PM 30.9 °F 19.4 °F 23.0 °F 72% 29.96 in 10.0 mi East 17.3 mph 21.9 mph N/A   Mostly Cloudy
12:33 PM 31.1 °F 20.1 °F 23.0 °F 72% 29.95 in 10.0 mi ENE 16.1 mph 20.7 mph N/A   Scattered Clouds
12:53 PM 31.6 °F 21.2 °F 23.4 °F 71% 29.94 in 10.0 mi ENE 15.0 mph 19.6 mph N/A   Mostly Cloudy
1:13 PM 31.8 °F 20.6 °F 23.2 °F 70% 29.93 in 10.0 mi ENE 17.3 mph 23.0 mph N/A   Scattered Clouds
1:33 PM 31.8 °F 21.0 °F 23.5 °F 71% 29.91 in 10.0 mi ENE 16.1 mph 23.0 mph N/A   Scattered Clouds
1:53 PM 32.0 °F 21.6 °F 23.5 °F 71% 29.90 in 10.0 mi East 15.0 mph 21.9 mph N/A   Scattered Clouds
2:13 PM 32.2 °F 22.7 °F 23.7 °F 71% 29.89 in 10.0 mi East 12.7 mph 17.3 mph N/A   Scattered Clouds
2:33 PM 32.2 °F 21.4 °F 23.5 °F 70% 29.89 in 10.0 mi ENE 16.1 mph - N/A   Scattered Clouds
2:53 PM 32.9 °F 22.4 °F 23.4 °F 68% 29.88 in 10.0 mi East 16.1 mph 25.3 mph N/A   Scattered Clouds
3:13 PM 33.1 °F 22.2 °F 23.7 °F 68% 29.87 in 10.0 mi ENE 17.3 mph 25.3 mph N/A   Clear
3:33 PM 32.9 °F 21.3 °F 24.3 °F 71% 29.86 in 10.0 mi ENE 19.6 mph 26.5 mph N/A   Scattered Clouds
3:53 PM 32.7 °F 22.5 °F 23.7 °F 69% 29.86 in 10.0 mi ENE 15.0 mph 21.9 mph N/A   Scattered Clouds
4:13 PM 32.5 °F 21.9 °F 24.3 °F 72% 29.84 in 10.0 mi ENE 16.1 mph 21.9 mph N/A   Scattered Clouds
4:33 PM 32.2 °F 20.7 °F 24.1 °F 72% 29.84 in 10.0 mi ENE 18.4 mph 24.2 mph N/A   Scattered Clouds
4:53 PM 32.0 °F 21.2 °F 23.9 °F 72% 29.83 in 10.0 mi ENE 16.1 mph 20.7 mph N/A   Clear
5:13 PM 32.2 °F 21.8 °F 24.4 °F 73% 29.84 in 10.0 mi ENE 15.0 mph 19.6 mph N/A   Scattered Clouds
5:33 PM 32.0 °F 21.6 °F 24.6 °F 74% 29.84 in 10.0 mi NE 15.0 mph 24.2 mph N/A   Mostly Cloudy
5:53 PM 31.6 °F 20.7 °F 25.2 °F 77% 29.84 in 10.0 mi NE 16.1 mph 23.0 mph N/A   Overcast
6:13 PM 30.9 °F 20.2 °F 25.5 °F 80% 29.85 in 10.0 mi NE 15.0 mph 23.0 mph N/A   Overcast
6:33 PM 30.0 °F 19.5 °F 25.7 °F 84% 29.87 in 10.0 mi NE 13.8 mph 18.4 mph N/A   Overcast
6:53 PM 29.3 °F 17.3 °F 25.3 °F 85% 29.87 in 10.0 mi NE 17.3 mph 21.9 mph N/A   Overcast
7:13 PM 28.9 °F 18.2 °F 25.2 °F 86% 29.87 in 10.0 mi NE 13.8 mph 24.2 mph N/A   Overcast
7:33 PM 28.4 °F 17.0 °F 24.8 °F 86% 29.88 in 10.0 mi NE 15.0 mph 20.7 mph N/A   Overcast
7:53 PM 28.4 °F 15.8 °F 24.4 °F 85% 29.89 in 10.0 mi NE 18.4 mph 23.0 mph N/A   Overcast
8:13 PM 28.2 °F 16.3 °F 24.3 °F 85% 29.89 in 10.0 mi NE 16.1 mph 20.7 mph N/A   Overcast
8:33 PM 27.9 °F 15.5 °F 24.6 °F 88% 29.89 in 10.0 mi NE 17.3 mph 21.9 mph N/A   Overcast
8:53 PM 27.7 °F 16.1 °F 24.6 °F 88% 29.89 in 10.0 mi NE 15.0 mph 21.9 mph N/A   Overcast
9:13 PM 27.5 °F 15.0 °F 24.8 °F 90% 29.89 in 10.0 mi NE 17.3 mph 23.0 mph N/A   Overcast
9:33 PM 27.1 °F 14.5 °F 24.8 °F 91% 29.89 in 10.0 mi NE 17.3 mph 27.6 mph N/A   Overcast
9:53 PM 27.1 °F 14.1 °F 24.8 °F 91% 29.90 in 10.0 mi NE 18.4 mph 28.8 mph N/A   Overcast
10:13 PM 27.1 °F 13.8 °F 24.8 °F 91% 29.90 in 10.0 mi NE 19.6 mph 29.9 mph N/A   Overcast
10:33 PM 27.1 °F 14.5 °F 24.8 °F 91% 29.91 in 10.0 mi NE 17.3 mph 28.8 mph N/A   Overcast
10:53 PM 27.3 °F 14.8 °F 24.8 °F 90% 29.91 in 10.0 mi NE 17.3 mph 27.6 mph N/A   Overcast
11:13 PM 27.5 °F 15.9 °F 24.8 °F 90% 29.91 in 10.0 mi NE 15.0 mph 21.9 mph N/A   Overcast
11:33 PM 28.0 °F 18.1 °F 24.8 °F 88% 29.91 in 10.0 mi NE 11.5 mph 19.6 mph N/A   Overcast
11:53 PM 28.4 °F 17.0 °F 25.2 °F 88% 29.91 in 10.0 mi NNE 15.0 mph 19.6 mph N/A   Overcast
11:59 PM 28.4 °F 18.0 °F 25.2 °F 88% 29.91 in 10.0 mi NNE 12.7 mph 19.6 mph N/A   Overcast